Tracking 30922 objects as of 2-Jul-2025
HD Live streaming from Space Station
objects crossing your sky now

DELTA 1 DEB

Track DELTA 1 DEB now!
10-day predictions


NORAD ID: 9042
Int'l Code: 1975-004DG
Perigee: 716.0 km
Apogee: 805.3 km
Inclination: 97.9 °
Period: 99.9 minutes
Semi major axis: 7131 km
RCS: 0.263 m2 (medium)
Launch date: January 22, 1975
Source: United States (US)
Launch site: AIR FORCE WESTERN TEST RANGE (AFWTR)

Note: This is SATELLITE DEBRIS
Your satellite tracking list
SATCOM 4
Track 1 satellite(s)




NASA's NSSDC Master Catalog

Two Line Element Set (TLE):
1 09042U 75004DG  25182.49370232  .00000261  00000-0  90563-4 0  9995
2 09042  97.9327 149.3970 0062553  50.8893 309.7837 14.41510010589120
Source of the keplerian elements: AFSPC